| time (UTC) | temp F | wind direction | speed knots | gust knots | rain 1hr in | rain 24hr in | rain mn in | humidity % | barometer mb |
| 20260903093519 | 82 | 203 | 0.9 | 2.6 | 0.00 | 0.00 | 0.00 | 41 | 1021.3 |
| 20260903093019 | 82 | 183 | 4.3 | 4.3 | 0.00 | 0.00 | 0.00 | 40 | 1021.3 |
| 20260903092519 | 83 | 211 | 2.6 | 4.3 | 0.00 | 0.00 | 0.00 | 40 | 1021.2 |
| 20260903091520 | 82 | 89 | 1.7 | 2.6 | 0.00 | 0.00 | 0.00 | 43 | 1021.3 |
| 20260903091019 | 81 | 146 | 1.7 | 2.6 | 0.00 | 0.00 | 0.00 | 42 | 1021.3 |
| 20260903090509 | 81 | 144 | 0.9 | 2.6 | 0.00 | 0.00 | 0.00 | 42 | 1021.2 |
| 20260903090019 | 80 | 118 | 1.7 | 5.2 | 0.00 | 0.00 | 0.00 | 42 | 1021.2 |
| 20260903085519 | 80 | 136 | 0.9 | 2.6 | 0.00 | 0.00 | 0.00 | 43 | 1021.2 |
| 20260903085008 | 80 | 90 | 2.6 | 2.6 | 0.00 | 0.00 | 0.00 | 44 | 1021.2 |
| 20260903084019 | 79 | 104 | 1.7 | 2.6 | 0.00 | 0.00 | 0.00 | 43 | 1021.1 |
| 20260903083008 | 79 | 46 | 0.9 | 2.6 | 0.00 | 0.00 | 0.00 | 45 | 1021.1 |
| 20260903082508 | 78 | 80 | 0.9 | 2.6 | 0.00 | 0.00 | 0.00 | 45 | 1021.2 |
| 20260903081519 | 77 | 70 | 1.7 | 2.6 | 0.00 | 0.00 | 0.00 | 46 | 1021.1 |
| 20260903080519 | 77 | 36 | 0.9 | 2.6 | 0.00 | 0.00 | 0.00 | 47 | 1021.1 |
| 20260903080020 | 77 | 69 | 0.9 | 2.6 | 0.00 | 0.00 | 0.00 | 47 | 1021.1 |
| 20260903075518 | 76 | 72 | 0.9 | 5.2 | 0.00 | 0.00 | 0.00 | 48 | 1021.0 |
| 20260903075018 | 76 | 91 | 1.7 | 5.2 | 0.00 | 0.00 | 0.00 | 48 | 1021.0 |
| 20260903074019 | 76 | 72 | 0.0 | 2.6 | 0.00 | 0.00 | 0.00 | 49 | 1021.1 |
| 20260903073508 | 76 | 82 | 1.7 | 2.6 | 0.00 | 0.00 | 0.00 | 49 | 1021.1 |
| 20260903073019 | 75 | 107 | 0.0 | 0.0 | 0.00 | 0.00 | 0.00 | 50 | 1021.1 |
| 20260903072507 | 75 | 108 | 0.0 | 0.9 | 0.00 | 0.00 | 0.00 | 50 | 1021.1 |
| 20260903072008 | 74 | 74 | 0.0 | 0.9 | 0.00 | 0.00 | 0.00 | 52 | 1021.0 |
| 20260903071507 | 74 | 34 | 0.9 | 2.6 | 0.00 | 0.00 | 0.00 | 52 | 1021.0 |
| 20260903070508 | 73 | 56 | 0.0 | 2.6 | 0.00 | 0.00 | 0.00 | 53 | 1020.8 |
| 20260903070019 | 73 | 57 | 2.6 | 5.2 | 0.00 | 0.00 | 0.00 | 53 | 1020.8 |
| 20260903065519 | 72 | 44 | 0.9 | 2.6 | 0.00 | 0.00 | 0.00 | 54 | 1020.8 |
| 20260903065019 | 72 | 45 | 1.7 | 2.6 | 0.00 | 0.00 | 0.00 | 54 | 1020.7 |
| 20260903064019 | 71 | 17 | 2.6 | 5.2 | 0.00 | 0.00 | 0.00 | 54 | 1020.6 |
| 20260903063019 | 71 | 52 | 0.9 | 2.6 | 0.00 | 0.00 | 0.00 | 55 | 1020.6 |
| 20260903062507 | 71 | 9 | 1.7 | 2.6 | 0.00 | 0.00 | 0.00 | 55 | 1020.7 |
| 20260903062019 | 70 | 47 | 1.7 | 4.3 | 0.00 | 0.00 | 0.00 | 55 | 1020.4 |
| 20260903061508 | 70 | 42 | 1.7 | 2.6 | 0.00 | 0.00 | 0.00 | 56 | 1020.4 |
| 20260903061019 | 70 | 24 | 2.6 | 5.2 | 0.00 | 0.00 | 0.00 | 56 | 1020.5 |
| 20260903060519 | 70 | 33 | 4.3 | 6.1 | 0.00 | 0.00 | 0.00 | 56 | 1020.3 |
| 20260903060019 | 70 | 26 | 3.5 | 7.0 | 0.00 | 0.00 | 0.00 | 56 | 1020.2 |
| 20260903055018 | 70 | 11 | 2.6 | 4.3 | 0.00 | 0.00 | 0.00 | 56 | 1020.1 |
| 20260903054519 | 70 | 17 | 2.6 | 5.2 | 0.00 | 0.00 | 0.00 | 56 | 1020.1 |
| 20260903054019 | 70 | 14 | 2.6 | 7.0 | 0.00 | 0.00 | 0.00 | 55 | 1020.0 |
| 20260903053518 | 70 | 19 | 3.5 | 7.0 | 0.00 | 0.00 | 0.00 | 55 | 1020.0 |
| 20260903053018 | 70 | 35 | 4.3 | 7.8 | 0.00 | 0.00 | 0.00 | 55 | 1020.0 |
| 20260903052518 | 70 | 20 | 3.5 | 7.8 | 0.00 | 0.00 | 0.00 | 55 | 1020.0 |
| 20260903052019 | 70 | 21 | 2.6 | 4.3 | 0.00 | 0.00 | 0.00 | 56 | 1020.0 |
| 20260903051519 | 70 | 36 | 2.6 | 6.1 | 0.00 | 0.00 | 0.00 | 56 | 1020.1 |
| 20260903051018 | 70 | 36 | 2.6 | 5.2 | 0.00 | 0.00 | 0.00 | 56 | 1020.0 |
| 20260903050508 | 69 | 32 | 2.6 | 4.3 | 0.00 | 0.00 | 0.00 | 57 | 1019.9 |
| 20260903050019 | 69 | 20 | 1.7 | 5.2 | 0.00 | 0.00 | 0.00 | 57 | 1019.9 |
| 20260903045518 | 69 | 31 | 1.7 | 2.6 | 0.00 | 0.00 | 0.00 | 57 | 1020.0 |
| 20260903045019 | 69 | 15 | 0.9 | 2.6 | 0.00 | 0.00 | 0.00 | 57 | 1020.0 |
| 20260903044519 | 68 | 5 | 0.0 | 0.0 | 0.00 | 0.00 | 0.00 | 57 | 1019.9 |
| 20260903043508 | 69 | 5 | 0.9 | 1.7 | 0.00 | 0.00 | 0.00 | 57 | 1019.9 |
| 20260903042519 | 69 | 18 | 0.9 | 2.6 | 0.00 | 0.00 | 0.00 | 57 | 1019.9 |
| 20260903042019 | 68 | 51 | 0.9 | 2.6 | 0.00 | 0.00 | 0.00 | 57 | 1019.8 |
| 20260903041519 | 68 | 62 | 1.7 | 4.3 | 0.00 | 0.00 | 0.00 | 58 | 1019.7 |
| 20260903041019 | 68 | 24 | 1.7 | 2.6 | 0.00 | 0.00 | 0.00 | 57 | 1019.5 |
| 20260903040519 | 68 | 36 | 1.7 | 2.6 | 0.00 | 0.00 | 0.00 | 56 | 1019.5 |
| 20260903040009 | 68 | 36 | 1.7 | 2.6 | 0.00 | 0.00 | 0.00 | 56 | 1019.5 |
| 20260903035518 | 68 | 26 | 1.7 | 2.6 | 0.00 | 0.00 | 0.00 | 55 | 1019.5 |
| 20260903035007 | 68 | 33 | 2.6 | 2.6 | 0.00 | 0.00 | 0.00 | 56 | 1019.5 |
| 20260903034519 | 68 | 27 | 2.6 | 4.3 | 0.00 | 0.00 | 0.00 | 56 | 1019.6 |
| 20260903034018 | 67 | 25 | 2.6 | 4.3 | 0.00 | 0.00 | 0.00 | 56 | 1019.6 |
| 20260903033518 | 67 | 25 | 2.6 | 2.6 | 0.00 | 0.00 | 0.00 | 57 | 1019.6 |
| 20260903032508 | 66 | 11 | 2.6 | 4.3 | 0.00 | 0.00 | 0.00 | 58 | 1019.7 |
| 20260903032019 | 67 | 8 | 4.3 | 5.2 | 0.00 | 0.00 | 0.00 | 57 | 1019.6 |
| 20260903031518 | 67 | 15 | 2.6 | 4.3 | 0.00 | 0.00 | 0.00 | 56 | 1019.6 |
| 20260903030519 | 68 | 11 | 2.6 | 2.6 | 0.00 | 0.00 | 0.00 | 55 | 1019.8 |
| 20260903030019 | 69 | 12 | 0.0 | 1.7 | 0.00 | 0.00 | 0.00 | 53 | 1019.8 |
| 20260903025519 | 70 | 111 | 0.0 | 0.0 | 0.00 | 0.00 | 0.00 | 53 | 1019.8 |
| 20260903025007 | 71 | 111 | 0.0 | 0.0 | 0.00 | 0.00 | 0.00 | 52 | 1019.7 |
| 20260903024507 | 72 | 111 | 0.0 | 0.0 | 0.00 | 0.00 | 0.00 | 51 | 1019.8 |
| 20260903024007 | 72 | 111 | 0.0 | 2.6 | 0.00 | 0.00 | 0.00 | 50 | 1019.8 |
| 20260903023518 | 73 | 125 | 2.6 | 6.1 | 0.00 | 0.00 | 0.00 | 50 | 1019.8 |
| 20260903022518 | 73 | 51 | 0.0 | 1.7 | 0.00 | 0.00 | 0.00 | 49 | 1019.5 |
| 20260903022018 | 74 | 51 | 1.7 | 4.3 | 0.00 | 0.00 | 0.00 | 49 | 1019.5 |
| 20260903021518 | 74 | 17 | 1.7 | 5.2 | 0.00 | 0.00 | 0.00 | 49 | 1019.5 |
| 20260903021009 | 73 | 10 | 0.9 | 2.6 | 0.00 | 0.00 | 0.00 | 49 | 1019.4 |
| 20260903020508 | 73 | 17 | 1.7 | 2.6 | 0.00 | 0.00 | 0.00 | 49 | 1019.5 |
| 20260903020019 | 74 | 27 | 2.6 | 4.3 | 0.00 | 0.00 | 0.00 | 48 | 1019.5 |
| 20260903015518 | 74 | 26 | 2.6 | 7.0 | 0.00 | 0.00 | 0.00 | 48 | 1019.5 |
| 20260903015018 | 74 | 22 | 4.3 | 7.8 | 0.00 | 0.00 | 0.00 | 48 | 1019.5 |
| 20260903014007 | 74 | 27 | 3.5 | 5.2 | 0.00 | 0.00 | 0.00 | 48 | 1019.6 |
| 20260903013018 | 73 | 19 | 2.6 | 5.2 | 0.00 | 0.00 | 0.00 | 48 | 1019.6 |
| 20260903012518 | 73 | 21 | 2.6 | 4.3 | 0.00 | 0.00 | 0.00 | 47 | 1019.6 |
| 20260903012018 | 74 | 22 | 2.6 | 4.3 | 0.00 | 0.00 | 0.00 | 46 | 1019.6 |
| 20260903010520 | 74 | 20 | 4.3 | 7.0 | 0.00 | 0.00 | 0.00 | 45 | 1019.6 |
| 20260903010008 | 74 | 11 | 5.2 | 7.8 | 0.00 | 0.00 | 0.00 | 45 | 1019.6 |
| 20260903004507 | 75 | 5 | 4.3 | 7.0 | 0.00 | 0.00 | 0.00 | 42 | 1019.6 |
| 20260903003507 | 75 | 9 | 5.2 | 10.4 | 0.00 | 0.00 | 0.00 | 40 | 1019.6 |
| 20260903003008 | 75 | 356 | 5.2 | 7.8 | 0.00 | 0.00 | 0.00 | 38 | 1019.6 |
| 20260903002507 | 75 | 17 | 5.2 | 7.8 | 0.00 | 0.00 | 0.00 | 37 | 1019.6 |
| 20260903002008 | 76 | 22 | 4.3 | 7.0 | 0.00 | 0.00 | 0.00 | 35 | 1019.6 |
| 20260903001507 | 76 | 29 | 4.3 | 7.0 | 0.00 | 0.00 | 0.00 | 34 | 1019.6 |
| 20260903001007 | 76 | 21 | 4.3 | 10.4 | 0.00 | 0.00 | 0.00 | 33 | 1019.7 |
| 20260903000007 | 76 | 10 | 5.2 | 10.4 | 0.00 | 0.00 | 0.00 | 32 | 1019.5 |
| 20260902235007 | 76 | 26 | 2.6 | 5.2 | 0.00 | 0.00 | 0.00 | 32 | 1019.5 |
| 20260902234007 | 76 | 32 | 3.5 | 5.2 | 0.00 | 0.00 | 0.00 | 33 | 1019.4 |
| 20260902233507 | 76 | 25 | 3.5 | 7.8 | 0.00 | 0.00 | 0.00 | 34 | 1019.5 |
| 20260902232507 | 74 | 49 | 2.6 | 2.6 | 0.00 | 0.00 | 0.00 | 37 | 1019.6 |
| 20260902232007 | 73 | 23 | 1.7 | 2.6 | 0.00 | 0.00 | 0.00 | 37 | 1019.6 |
| 20260902231508 | 74 | 27 | 0.0 | 1.7 | 0.00 | 0.00 | 0.00 | 36 | 1019.6 |
| 20260902231007 | 74 | 19 | 0.0 | 0.0 | 0.00 | 0.00 | 0.00 | 36 | 1019.6 |
| 20260902230508 | 75 | 19 | 0.0 | 0.0 | 0.00 | 0.00 | 0.00 | 36 | 1019.5 |
| 20260902225007 | 76 | 25 | 1.7 | 2.6 | 0.00 | 0.00 | 0.00 | 34 | 1019.3 |
| 20260902224507 | 76 | 0 | 1.7 | 2.6 | 0.00 | 0.00 | 0.00 | 34 | 1019.3 |
| 20260902224007 | 76 | 0 | 1.7 | 2.6 | 0.00 | 0.00 | 0.00 | 34 | 1019.3 |
| 20260902223508 | 76 | 355 | 2.6 | 4.3 | 0.00 | 0.00 | 0.00 | 34 | 1019.2 |
| 20260902222508 | 77 | 352 | 2.6 | 4.3 | 0.00 | 0.00 | 0.00 | 33 | 1019.3 |
| 20260902221008 | 79 | 23 | 2.6 | 4.3 | 0.00 | 0.00 | 0.00 | 31 | 1019.1 |
| 20260902220507 | 79 | 18 | 2.6 | 2.6 | 0.00 | 0.00 | 0.00 | 30 | 1019.0 |
| 20260902220008 | 80 | 303 | 0.9 | 2.6 | 0.00 | 0.00 | 0.00 | 30 | 1019.0 |
| 20260902215507 | 79 | 303 | 0.9 | 2.6 | 0.00 | 0.00 | 0.00 | 30 | 1019.0 |
| 20260902215007 | 79 | 303 | 0.9 | 1.7 | 0.00 | 0.00 | 0.00 | 31 | 1018.9 |
| 20260902214507 | 78 | 303 | 0.9 | 2.6 | 0.00 | 0.00 | 0.00 | 32 | 1018.9 |
| 20260902214007 | 78 | 303 | 0.0 | 1.7 | 0.00 | 0.00 | 0.00 | 32 | 1018.8 |
| 20260902213507 | 78 | 303 | 0.9 | 2.6 | 0.00 | 0.00 | 0.00 | 32 | 1018.8 |
| 20260902212507 | 79 | 298 | 0.9 | 2.6 | 0.00 | 0.00 | 0.00 | 31 | 1018.9 |
| 20260902212007 | 78 | 290 | 0.0 | 0.9 | 0.00 | 0.00 | 0.00 | 31 | 1018.9 |
| 20260902211007 | 79 | 354 | 0.0 | 0.0 | 0.00 | 0.00 | 0.00 | 32 | 1019.0 |
| 20260902210507 | 80 | 10 | 0.0 | 0.0 | 0.00 | 0.00 | 0.00 | 31 | 1018.9 |
| 20260902210009 | 80 | 10 | 0.0 | 0.0 | 0.00 | 0.00 | 0.00 | 31 | 1018.8 |
| 20260902205514 | 80 | 10 | 0.0 | 0.0 | 0.00 | 0.00 | 0.00 | 31 | 1018.8 |
| 20260902205008 | 80 | 10 | 0.9 | 1.7 | 0.00 | 0.00 | 0.00 | 31 | 1018.8 |
| 20260902204007 | 80 | 10 | 1.7 | 2.6 | 0.00 | 0.00 | 0.00 | 31 | 1018.6 |
| 20260902203507 | 81 | 10 | 1.7 | 2.6 | 0.00 | 0.00 | 0.00 | 30 | 1018.7 |
| 20260902203008 | 81 | 10 | 1.7 | 2.6 | 0.00 | 0.00 | 0.00 | 30 | 1018.7 |
| 20260902202508 | 81 | 10 | 1.7 | 2.6 | 0.00 | 0.00 | 0.00 | 30 | 1018.7 |
| 20260902202006 | 81 | 10 | 0.9 | 1.7 | 0.00 | 0.00 | 0.00 | 30 | 1018.6 |
| 20260902201507 | 81 | 10 | 1.7 | 2.6 | 0.00 | 0.00 | 0.00 | 30 | 1018.5 |
| 20260902200507 | 82 | 10 | 1.7 | 2.6 | 0.00 | 0.00 | 0.00 | 29 | 1018.4 |
| 20260902200007 | 82 | 10 | 1.7 | 2.6 | 0.00 | 0.00 | 0.00 | 29 | 1018.4 |
| 20260902194507 | 83 | 202 | 0.0 | 0.0 | 0.00 | 0.00 | 0.00 | 28 | 1018.2 |
| 20260902194007 | 84 | 202 | 0.0 | 0.0 | 0.00 | 0.00 | 0.00 | 28 | 1018.1 |
| 20260902193507 | 85 | 202 | 0.0 | 0.0 | 0.00 | 0.00 | 0.00 | 27 | 1018.0 |
| 20260902193007 | 86 | 202 | 0.0 | 0.0 | 0.00 | 0.00 | 0.00 | 26 | 1017.7 |
| 20260902191507 | 88 | 202 | 0.0 | 0.0 | 0.00 | 0.00 | 0.00 | 26 | 1017.7 |
| 20260902190507 | 89 | 202 | 0.0 | 0.0 | 0.00 | 0.00 | 0.00 | 26 | 1017.7 |
| 20260902190008 | 89 | 202 | 0.0 | 0.0 | 0.00 | 0.00 | 0.00 | 25 | 1017.7 |
| 20260902185507 | 90 | 202 | 0.0 | 0.0 | 0.00 | 0.00 | 0.00 | 25 | 1017.6 |
| 20260902185007 | 90 | 202 | 0.0 | 0.0 | 0.00 | 0.00 | 0.00 | 25 | 1017.7 |
| 20260902184507 | 91 | 202 | 0.9 | 2.6 | 0.00 | 0.00 | 0.00 | 24 | 1017.6 |
| 20260902184007 | 91 | 202 | 0.9 | 2.6 | 0.00 | 0.00 | 0.00 | 24 | 1017.5 |
| 20260902183507 | 91 | 203 | 1.7 | 2.6 | 0.00 | 0.00 | 0.00 | 24 | 1017.4 |
| 20260902182507 | 92 | 201 | 0.9 | 2.6 | 0.00 | 0.00 | 0.00 | 23 | 1017.3 |
| 20260902182007 | 93 | 199 | 2.6 | 4.3 | 0.00 | 0.00 | 0.00 | 23 | 1017.3 |
| 20260902181519 | 93 | 206 | 0.9 | 4.3 | 0.00 | 0.00 | 0.00 | 22 | 1017.3 |
| 20260902181009 | 93 | 239 | 0.0 | 1.7 | 0.00 | 0.00 | 0.00 | 23 | 1017.3 |
| 20260902180513 | 93 | 214 | 0.0 | 5.2 | 0.00 | 0.00 | 0.00 | 23 | 1017.3 |
| 20260902180008 | 93 | 202 | 2.6 | 4.3 | 0.00 | 0.00 | 0.00 | 22 | 1017.3 |
| 20260902175507 | 94 | 194 | 1.7 | 2.6 | 0.00 | 0.00 | 0.00 | 22 | 1017.3 |
| 20260902175006 | 94 | 231 | 0.0 | 2.6 | 0.00 | 0.00 | 0.00 | 22 | 1017.3 |
| 20260902174509 | 94 | 255 | 1.7 | 4.3 | 0.00 | 0.00 | 0.00 | 22 | 1017.3 |
| 20260902174007 | 94 | 202 | 2.6 | 5.2 | 0.00 | 0.00 | 0.00 | 22 | 1017.3 |
| 20260902173507 | 94 | 252 | 2.6 | 4.3 | 0.00 | 0.00 | 0.00 | 22 | 1017.3 |
| 20260902173007 | 94 | 256 | 3.5 | 5.2 | 0.00 | 0.00 | 0.00 | 22 | 1017.3 |
| 20260902172506 | 94 | 197 | 2.6 | 7.0 | 0.00 | 0.00 | 0.00 | 22 | 1017.2 |
| 20260902172007 | 94 | 246 | 1.7 | 6.1 | 0.00 | 0.00 | 0.00 | 22 | 1017.3 |
| 20260902171507 | 94 | 236 | 4.3 | 7.8 | 0.00 | 0.00 | 0.00 | 22 | 1017.3 |
| 20260902165506 | 94 | 215 | 2.6 | 6.1 | 0.00 | 0.00 | 0.00 | 22 | 1017.3 |
| 20260902165007 | 94 | 254 | 2.6 | 6.1 | 0.00 | 0.00 | 0.00 | 22 | 1017.2 |
| 20260902164507 | 94 | 201 | 4.3 | 7.0 | 0.00 | 0.00 | 0.00 | 22 | 1017.2 |
| 20260902164007 | 94 | 244 | 4.3 | 8.7 | 0.00 | 0.00 | 0.00 | 22 | 1017.2 |
| 20260902163507 | 93 | 250 | 5.2 | 10.4 | 0.00 | 0.00 | 0.00 | 22 | 1017.3 |
| 20260902163007 | 93 | 208 | 3.5 | 7.0 | 0.00 | 0.00 | 0.00 | 23 | 1017.2 |
| 20260902162507 | 93 | 205 | 3.5 | 7.8 | 0.00 | 0.00 | 0.00 | 23 | 1017.3 |
| 20260902162006 | 93 | 172 | 5.2 | 7.8 | 0.00 | 0.00 | 0.00 | 23 | 1017.3 |
| 20260902161507 | 93 | 188 | 3.5 | 7.8 | 0.00 | 0.00 | 0.00 | 23 | 1017.4 |
| 20260902155507 | 94 | 213 | 2.6 | 10.4 | 0.00 | 0.00 | 0.00 | 23 | 1017.6 |
| 20260902155007 | 93 | 219 | 2.6 | 10.4 | 0.00 | 0.00 | 0.00 | 23 | 1017.7 |
| 20260902154507 | 94 | 194 | 4.3 | 7.8 | 0.00 | 0.00 | 0.00 | 22 | 1017.7 |
| 20260902154007 | 94 | 240 | 4.3 | 7.8 | 0.00 | 0.00 | 0.00 | 22 | 1017.7 |
| 20260902153507 | 94 | 229 | 3.5 | 8.7 | 0.00 | 0.00 | 0.00 | 23 | 1017.8 |
| 20260902153007 | 94 | 216 | 3.5 | 6.1 | 0.00 | 0.00 | 0.00 | 22 | 1017.8 |
| 20260902152007 | 94 | 223 | 2.6 | 8.7 | 0.00 | 0.00 | 0.00 | 22 | 1017.8 |
| 20260902151006 | 93 | 290 | 3.5 | 7.8 | 0.00 | 0.00 | 0.00 | 23 | 1018.0 |
| 20260902145506 | 93 | 230 | 5.2 | 10.4 | 0.00 | 0.00 | 0.00 | 23 | 1018.1 |
| 20260902145006 | 93 | 339 | 2.6 | 7.8 | 0.00 | 0.00 | 0.00 | 23 | 1018.0 |
| 20260902144507 | 93 | 198 | 4.3 | 7.0 | 0.00 | 0.00 | 0.00 | 23 | 1018.1 |
| 20260902144007 | 93 | 212 | 3.5 | 7.8 | 0.00 | 0.00 | 0.00 | 23 | 1018.1 |
| 20260902143507 | 93 | 311 | 3.5 | 7.0 | 0.00 | 0.00 | 0.00 | 22 | 1018.2 |
| 20260902143007 | 93 | 288 | 1.7 | 7.0 | 0.00 | 0.00 | 0.00 | 21 | 1018.3 |
| 20260902142507 | 93 | 264 | 1.7 | 8.7 | 0.00 | 0.00 | 0.00 | 23 | 1018.4 |
| 20260902142007 | 93 | 211 | 4.3 | 10.4 | 0.00 | 0.00 | 0.00 | 23 | 1018.4 |
| 20260902141506 | 92 | 259 | 0.9 | 7.8 | 0.00 | 0.00 | 0.00 | 24 | 1018.4 |
| 20260902141007 | 91 | 3 | 1.7 | 7.0 | 0.00 | 0.00 | 0.00 | 25 | 1018.4 |
| 20260902140507 | 92 | 287 | 4.3 | 8.7 | 0.00 | 0.00 | 0.00 | 25 | 1018.5 |
| 20260902140007 | 92 | 236 | 6.1 | 10.4 | 0.00 | 0.00 | 0.00 | 25 | 1018.5 |
| 20260902135506 | 91 | 214 | 2.6 | 5.2 | 0.00 | 0.00 | 0.00 | 25 | 1018.6 |
| 20260902135006 | 91 | 181 | 3.5 | 8.7 | 0.00 | 0.00 | 0.00 | 25 | 1018.7 |
| 20260902134507 | 91 | 156 | 4.3 | 10.4 | 0.00 | 0.00 | 0.00 | 26 | 1018.7 |
| 20260902134006 | 91 | 214 | 2.6 | 10.4 | 0.00 | 0.00 | 0.00 | 26 | 1018.6 |
| 20260902133007 | 91 | 87 | 3.5 | 6.1 | 0.00 | 0.00 | 0.00 | 26 | 1018.7 |
| 20260902132506 | 91 | 195 | 3.5 | 7.8 | 0.00 | 0.00 | 0.00 | 26 | 1018.8 |
| 20260902132007 | 91 | 192 | 4.3 | 7.8 | 0.00 | 0.00 | 0.00 | 25 | 1018.7 |
| 20260902131006 | 91 | 246 | 2.6 | 5.2 | 0.00 | 0.00 | 0.00 | 25 | 1018.8 |
| 20260902130507 | 90 | 199 | 4.3 | 6.1 | 0.00 | 0.00 | 0.00 | 24 | 1018.8 |
| 20260902130007 | 90 | 230 | 1.7 | 6.1 | 0.00 | 0.00 | 0.00 | 25 | 1018.8 |
| 20260902125507 | 91 | 227 | 5.2 | 7.8 | 0.00 | 0.00 | 0.00 | 24 | 1018.9 |
| 20260902125007 | 90 | 221 | 2.6 | 7.0 | 0.00 | 0.00 | 0.00 | 24 | 1018.9 |
| 20260902124007 | 89 | 194 | 5.2 | 10.4 | 0.00 | 0.00 | 0.00 | 24 | 1019.0 |
| 20260902123507 | 89 | 193 | 4.3 | 7.0 | 0.00 | 0.00 | 0.00 | 24 | 1019.0 |
| 20260902123007 | 89 | 121 | 0.9 | 7.8 | 0.00 | 0.00 | 0.00 | 25 | 1019.0 |
| 20260902122006 | 89 | 176 | 3.5 | 6.1 | 0.00 | 0.00 | 0.00 | 27 | 1019.1 |
| 20260902121506 | 89 | 265 | 3.5 | 7.0 | 0.00 | 0.00 | 0.00 | 26 | 1019.2 |
| 20260902121007 | 88 | 201 | 2.6 | 7.0 | 0.00 | 0.00 | 0.00 | 28 | 1019.2 |
| 20260902120506 | 88 | 211 | 3.5 | 7.0 | 0.00 | 0.00 | 0.00 | 28 | 1019.3 |
| 20260902120007 | 88 | 52 | 1.7 | 2.6 | 0.00 | 0.00 | 0.00 | 29 | 1019.2 |
| 20260902115007 | 87 | 139 | 2.6 | 7.8 | 0.00 | 0.00 | 0.00 | 28 | 1019.3 |
| 20260902114506 | 87 | 170 | 4.3 | 7.0 | 0.00 | 0.00 | 0.00 | 30 | 1019.5 |
| 20260902114006 | 87 | 260 | 0.0 | 2.6 | 0.00 | 0.00 | 0.00 | 32 | 1019.5 |
| 20260902113007 | 86 | 228 | 2.6 | 5.2 | 0.00 | 0.00 | 0.00 | 33 | 1019.8 |
| 20260902112507 | 86 | 298 | 2.6 | 6.1 | 0.00 | 0.00 | 0.00 | 34 | 1019.8 |
| 20260902112006 | 85 | 214 | 2.6 | 6.1 | 0.00 | 0.00 | 0.00 | 35 | 1019.8 |
| 20260902111506 | 85 | 172 | 0.9 | 5.2 | 0.00 | 0.00 | 0.00 | 35 | 1019.9 |
| 20260902111006 | 85 | 183 | 1.7 | 4.3 | 0.00 | 0.00 | 0.00 | 33 | 1019.9 |
| 20260902110506 | 84 | 194 | 0.9 | 4.3 | 0.00 | 0.00 | 0.00 | 36 | 1020.0 |
| 20260902110008 | 84 | 194 | 0.9 | 2.6 | 0.00 | 0.00 | 0.00 | 37 | 1020.0 |
| 20260902105007 | 84 | 70 | 0.0 | 0.0 | 0.00 | 0.00 | 0.00 | 41 | 1020.0 |
| 20260902104006 | 83 | 227 | 1.7 | 2.6 | 0.00 | 0.00 | 0.00 | 42 | 1020.0 |
| 20260902103507 | 83 | 225 | 2.6 | 4.3 | 0.00 | 0.00 | 0.00 | 43 | 1020.0 |
| 20260902103007 | 82 | 292 | 1.7 | 2.6 | 0.00 | 0.00 | 0.00 | 44 | 1020.0 |
| 20260902102507 | 82 | 284 | 0.9 | 2.6 | 0.00 | 0.00 | 0.00 | 45 | 1020.0 |
| 20260902101506 | 81 | 188 | 1.7 | 4.3 | 0.00 | 0.00 | 0.00 | 49 | 1020.1 |
| 20260902100507 | 81 | 246 | 1.7 | 5.2 | 0.00 | 0.00 | 0.00 | 51 | 1020.2 |
| 20260902100008 | 81 | 220 | 1.7 | 6.1 | 0.00 | 0.00 | 0.00 | 51 | 1020.2 |
| 20260902095508 | 80 | 137 | 0.9 | 2.6 | 0.00 | 0.00 | 0.00 | 50 | 1020.2 |
| 20260902094508 | 79 | 103 | 0.9 | 4.3 | 0.00 | 0.00 | 0.00 | 52 | 1020.2 |
| 20260902094008 | 79 | 191 | 2.6 | 5.2 | 0.00 | 0.00 | 0.00 | 53 | 1020.2 |